Theta_e
333 329 327 327 328 328 328 328 327 326 327 327 327 328 329 329 329 329 330 330 330 330 330 330 330 330 330 330 330 330 329 329 329 330 330 330 330 329 328 328 329 328 328 328 328 327 327 327 326 326 326 324 324 323 323 323 323 323 323 323 323 323 323
330 327 326 327 327 327 327 327 327 327 327 327 326 326 327 328 328 329 329 330 329 330 330 330 329 329 329 330 330 330 329 329 329 330 331 331 331 330 329 329 329 328 327 327 328 328 327 326 326 326 325 323 323 322 322 323 323 323 323 323 323 323 322
329 327 327 327 327 327 327 327 327 327 326 326 326 326 326 327 328 329 329 329 329 329 329 329 329 329 329 329 330 330 329 329 329 329 330 331 331 330 330 329 329 328 328 327 328 328 327 326 326 326 325 324 323 321 321 321 322 322 322 322 322 321 321
330 328 328 328 327 327 327 327 327 326 325 325 325 325 326 327 328 328 327 327 327 327 328 327 328 328 328 328 329 329 329 329 329 329 329 330 330 330 329 329 329 329 329 329 328 328 327 326 326 326 325 324 323 321 319 319 319 319 319 319 318 318 317
331 329 328 327 327 327 327 327 328 326 324 324 325 325 326 326 326 326 324 324 324 325 327 326 326 327 327 327 328 328 328 329 329 329 329 329 329 330 329 328 329 328 328 329 329 328 328 326 325 325 324 323 322 321 317 316 315 315 315 314 314 314 312
332 331 329 327 326 326 326 326 326 325 324 324 324 324 325 325 325 324 323 323 322 324 326 326 326 327 327 327 327 327 327 328 328 328 329 329 329 329 329 328 327 327 328 328 328 329 328 326 325 325 323 322 322 320 316 315 314 312 312 312 312 311 309
332 331 330 327 326 325 324 324 324 324 324 324 323 323 324 324 324 324 323 321 320 323 326 327 326 327 326 327 327 326 327 327 327 327 328 328 328 328 328 328 327 327 327 327 327 328 327 326 325 324 323 322 321 319 316 314 314 313 312 311 310 309 308
330 330 329 327 325 324 323 323 323 323 324 324 323 323 322 323 324 324 323 320 318 321 325 326 326 326 325 326 326 326 326 326 326 326 326 327 327 327 328 328 328 327 326 326 327 327 327 326 325 324 323 322 320 319 317 316 315 314 312 310 309 309 307
329 328 327 326 325 324 323 323 323 323 324 324 322 322 322 323 325 324 322 319 317 319 323 325 324 323 322 323 325 325 325 325 324 325 324 325 325 325 326 327 327 327 326 326 327 327 327 326 325 325 324 322 320 318 318 317 316 314 312 311 309 308 307
328 326 326 325 324 324 324 323 323 323 324 323 322 322 321 323 324 323 321 319 317 318 321 323 323 322 319 319 322 322 321 321 320 321 322 322 323 324 324 325 326 327 326 325 326 326 325 325 324 323 323 322 320 318 318 318 317 315 312 311 309 308 306
326 325 324 324 324 324 324 323 323 323 324 323 323 322 321 322 324 323 321 319 318 318 318 320 322 322 317 316 318 318 317 316 316 318 319 321 323 324 324 324 325 325 325 325 325 324 324 323 322 320 320 320 319 318 318 317 317 317 313 311 310 308 306
325 324 324 324 324 325 324 323 323 323 323 323 323 321 321 322 323 323 321 319 318 318 317 317 320 320 316 315 316 315 314 314 314 315 315 318 322 324 325 325 325 325 324 324 324 324 324 323 320 318 316 314 315 317 318 316 316 316 314 312 311 308 306
325 325 324 324 324 324 323 323 323 323 323 323 322 321 320 320 321 322 321 319 318 317 316 317 319 319 315 314 314 314 314 313 313 313 312 313 317 322 325 324 323 324 323 324 324 323 323 322 319 318 315 314 314 314 317 316 315 316 315 314 312 308 306
325 325 324 324 324 323 323 323 323 322 322 322 322 321 320 320 319 320 320 319 317 315 314 316 318 317 314 314 314 313 313 313 313 313 312 312 313 318 322 323 322 322 322 323 323 322 323 321 318 317 315 316 316 314 315 317 316 316 314 312 312 309 306
325 325 324 324 323 323 323 323 323 322 320 320 321 320 319 319 318 319 319 318 316 314 312 315 317 316 314 314 314 313 313 313 313 312 312 312 312 314 318 321 322 322 322 322 322 322 322 320 319 319 318 318 319 318 316 317 317 316 314 313 312 310 307
324 324 323 323 323 323 324 323 323 322 320 320 320 320 319 318 318 318 318 316 315 314 313 313 315 315 314 314 314 313 313 313 313 312 312 312 312 312 314 317 320 321 322 322 322 322 322 320 320 321 321 320 320 320 318 318 317 316 315 315 313 311 309
323 323 322 322 323 324 324 323 323 322 320 319 319 319 318 317 317 317 317 316 315 314 313 313 314 315 314 314 314 313 313 313 313 313 313 312 313 313 313 314 315 316 318 319 320 320 320 319 319 320 321 320 320 320 319 319 318 317 316 315 313 312 311
322 322 322 322 323 324 323 323 323 322 320 319 319 318 318 317 317 317 316 315 314 313 314 314 314 314 313 313 314 313 313 313 313 313 313 313 312 312 312 312 313 313 313 315 315 315 315 315 315 316 317 317 317 316 317 318 318 318 316 315 313 312 312
322 321 322 323 323 323 323 323 323 322 320 319 317 316 316 316 317 317 316 315 314 313 313 313 314 314 313 312 313 314 314 313 313 313 313 313 313 313 312 312 313 313 313 314 314 313 314 314 314 314 314 314 313 312 313 316 317 317 317 316 314 312 311
322 322 322 323 322 322 323 322 322 321 320 318 316 314 314 315 316 316 316 315 314 313 313 313 314 314 314 313 313 314 314 314 313 313 313 313 313 314 314 313 313 313 314 314 314 314 314 314 314 314 314 313 312 311 312 315 315 315 316 316 314 313 311
321 322 322 322 322 322 321 320 320 319 318 317 315 314 314 314 314 315 315 315 315 314 313 313 314 314 314 314 314 314 314 314 313 313 313 313 313 313 314 315 315 316 316 316 316 316 316 315 315 315 314 314 314 312 311 313 314 314 315 315 314 313 313
321 320 320 320 320 320 319 318 317 317 316 315 314 314 314 314 314 314 314 315 315 315 314 314 314 314 314 314 314 314 315 314 313 313 313 313 313 313 314 314 315 316 316 317 317 317 317 317 317 316 316 315 314 313 312 312 313 314 314 314 313 313 313
320 320 320 319 319 318 318 318 317 318 318 317 315 314 314 314 315 315 315 315 315 315 314 314 314 315 315 315 315 315 315 315 314 313 313 314 314 314 314 315 315 316 316 317 318 318 317 318 318 318 317 317 316 314 313 313 313 313 312 312 312 312 312
319 319 318 318 319 318 317 318 318 318 319 318 316 316 316 315 316 316 315 315 315 315 314 314 315 315 315 315 315 316 316 316 316 315 314 314 315 316 316 316 316 316 317 317 318 318 318 318 318 318 318 317 317 316 315 315 315 314 313 312 313 312 312
318 318 317 317 317 316 316 316 317 317 318 317 316 316 317 316 316 316 316 316 316 316 315 315 315 316 316 315 316 316 316 317 317 316 316 315 315 317 318 318 318 318 318 318 319 319 319 319 319 319 318 318 318 317 316 316 316 315 314 314 315 314 312
318 318 318 317 316 316 316 317 317 318 319 318 317 317 318 318 318 317 317 316 316 316 317 316 317 317 316 316 316 316 316 317 317 317 317 317 317 317 318 318 318 318 318 319 319 319 319 319 319 319 319 318 318 318 317 317 316 316 316 315 316 316 315
318 318 318 318 317 317 317 318 318 319 319 319 319 319 319 319 319 319 318 318 318 317 317 317 317 317 317 317 317 317 317 316 317 317 317 317 317 317 317 317 318 318 319 319 319 319 319 319 319 319 319 319 318 318 318 318 317 316 316 316 316 317 317
316 316 316 317 317 316 316 316 317 317 318 318 318 318 319 319 319 319 319 319 319 318 318 318 319 319 318 318 318 318 317 317 317 317 317 317 318 318 318 318 318 318 319 319 319 319 319 319 319 319 319 319 319 318 318 318 318 318 317 317 317 317 317
311 312 312 313 312 310 311 311 311 312 313 314 313 313 314 314 314 314 314 315 315 314 314 315 317 318 319 319 319 319 319 318 318 318 318 318 318 318 319 319 319 319 319 319 319 319 319 319 319 319 319 319 319 319 319 319 318 318 318 318 318 318 317
306 307 308 308 306 305 305 305 305 306 308 308 308 308 307 307 307 307 308 308 308 308 308 309 311 314 316 317 318 319 319 319 319 319 319 319 319 319 319 319 319 319 319 319 319 319 319 319 318 319 319 318 318 318 318 318 318 318 318 318 318 317 317
302 303 303 303 303 303 303 303 303 303 304 305 305 304 304 304 304 304 305 306 305 304 304 304 306 308 309 311 312 314 315 316 317 318 318 318 318 318 319 319 319 320 320 320 320 320 319 319 318 318 318 318 318 317 317 318 317 316 316 315 315 315 315
300 300 300 299 300 300 300 300 301 301 302 302 302 302 303 303 303 303 304 305 305 305 304 302 303 304 305 307 308 309 310 311 312 313 314 315 316 316 317 317 318 319 320 320 320 320 320 319 318 318 318 318 318 318 317 317 317 315 314 312 312 312 312
298 298 298 298 298 298 298 298 299 299 299 299 300 300 300 300 301 301 301 301 302 303 302 301 301 302 302 303 304 305 306 307 308 309 310 311 313 314 314 315 316 317 318 318 319 319 319 319 318 318 318 317 317 317 317 317 316 314 311 310 310 310 309
297 297 297 297 297 297 297 298 298 298 298 298 298 298 298 298 298 298 298 299 299 299 299 299 300 300 300 301 301 302 303 304 305 307 307 308 309 310 311 313 314 315 315 316 317 317 317 318 317 317 317 316 316 317 316 316 316 313 310 309 309 308 307
295 295 295 296 296 296 296 296 296 297 297 297 297 297 297 297 297 297 297 297 297 297 297 298 298 299 299 299 300 300 300 301 302 303 304 306 307 308 309 310 311 312 312 313 314 315 316 316 315 315 316 316 316 316 315 315 314 312 310 308 308 307 306
294 295 295 295 295 295 295 295 295 295 295 296 296 296 296 296 296 296 296 296 296 296 296 297 297 297 297 298 298 298 299 299 299 300 301 302 304 305 307 308 308 309 310 311 311 312 312 312 312 313 314 315 315 315 314 313 312 311 309 308 307 306 305
294 294 294 294 295 295 294 295 295 295 295 295 296 296 296 296 296 296 295 295 295 295 295 296 296 296 296 296 297 297 297 298 298 298 299 300 301 303 305 306 307 308 309 309 309 309 310 310 311 312 313 313 314 314 313 311 310 309 308 307 306 305 305
Wind_Speed
19 20 20 19 17 17 17 16 14 13 13 11 11 10 9 9 8 8 9 8 8 8 7 7 6 6 7 7 7 7 8 9 9 8 8 9 9 7 5 2 1 4 6 5 5 6 6 5 7 10 11 10 10 9 9 11 11 10 10 10 10 10 10
21 23 22 19 19 18 17 16 14 13 13 12 11 10 9 9 9 9 9 8 8 7 6 6 6 7 7 8 8 8 8 9 8 7 7 8 8 8 6 4 4 6 6 4 6 7 7 7 6 8 10 10 10 9 9 10 9 10 10 10 10 10 9
24 23 22 20 20 19 18 17 15 13 12 11 11 10 9 9 9 9 8 7 7 6 6 6 6 7 7 7 7 8 9 9 8 8 7 7 7 8 7 6 6 8 7 6 7 7 7 7 6 9 10 9 8 7 7 8 8 9 10 9 10 10 10
25 24 22 21 20 20 19 18 16 14 12 11 11 10 9 10 10 10 8 7 6 6 6 6 5 6 6 7 7 7 8 9 8 8 7 7 7 8 7 6 6 8 7 7 8 8 7 7 8 9 9 9 9 8 7 8 7 8 8 9 10 11 13
26 25 24 22 21 21 21 19 17 14 12 12 12 11 10 10 10 10 9 7 6 6 6 5 4 5 5 6 6 7 8 8 7 7 6 7 8 8 7 6 6 7 5 5 8 8 7 9 10 10 10 9 9 8 7 7 7 8 8 8 9 12 14
24 24 24 23 22 21 21 20 17 15 13 12 12 11 10 10 9 9 7 6 5 6 6 5 5 4 4 4 4 5 6 6 6 5 5 6 7 7 7 6 7 6 3 4 7 8 8 10 11 11 11 9 9 9 7 7 8 8 8 8 9 11 14
23 23 23 23 23 22 20 19 17 16 15 13 11 10 9 9 9 8 7 6 5 5 5 5 4 4 3 3 3 4 4 4 4 4 4 5 6 7 7 7 8 7 3 4 9 9 10 11 11 12 12 10 8 8 7 7 7 7 7 7 8 10 12
22 23 23 23 23 22 19 18 16 16 15 13 11 10 9 9 9 9 7 7 6 5 6 5 5 5 5 4 4 4 4 4 4 4 5 5 5 6 7 7 8 8 5 6 9 10 10 10 11 13 13 10 7 6 7 7 5 6 8 8 7 8 10
23 23 24 24 23 21 19 17 16 16 14 13 12 10 10 10 10 10 9 7 6 6 6 6 6 7 6 6 6 6 6 6 5 5 4 4 4 5 7 7 8 8 6 7 9 9 10 10 11 12 11 10 8 6 5 5 5 6 7 7 7 7 9
24 23 23 23 23 21 18 16 15 14 14 13 12 11 11 11 12 11 10 8 7 6 6 6 6 6 6 6 7 7 7 7 5 5 4 3 3 4 6 8 8 8 7 8 9 11 11 11 13 12 9 8 9 7 5 4 5 6 7 6 6 7 9
24 23 22 23 22 20 18 16 14 13 12 12 12 11 11 12 12 11 10 9 7 6 5 5 6 6 6 7 8 9 9 8 7 7 6 4 5 6 7 8 9 8 8 9 10 11 11 13 16 15 11 9 8 7 6 6 5 6 8 7 5 8 12
24 23 22 22 21 20 18 16 14 13 12 12 12 12 12 13 13 12 11 10 8 6 5 5 7 6 6 8 10 10 10 9 8 8 7 6 6 8 9 11 11 10 10 10 10 10 11 15 18 15 12 11 7 6 8 7 5 6 8 8 6 9 13
24 23 22 21 21 19 17 16 14 13 12 12 12 12 12 12 12 12 11 10 9 6 5 6 7 7 7 9 10 10 9 8 7 7 7 6 7 8 10 12 11 11 11 11 11 11 12 17 18 14 12 10 7 7 7 4 5 7 9 8 8 10 13
24 23 22 21 19 18 16 15 14 13 12 12 13 12 12 11 11 12 12 11 9 6 6 7 8 7 8 10 9 9 8 6 5 5 6 6 7 7 9 11 11 12 12 12 13 13 13 16 17 14 12 9 5 7 6 1 4 8 10 10 9 11 15
23 23 22 21 19 17 16 14 13 12 12 13 13 12 11 10 11 12 12 11 9 7 7 8 8 8 8 9 8 7 5 4 3 4 5 6 7 7 7 9 10 10 11 11 12 12 12 14 14 12 10 8 5 5 5 2 3 7 10 11 10 11 16
23 22 21 21 19 17 15 14 13 12 12 12 13 12 10 10 12 12 12 11 9 8 7 8 9 8 8 8 7 5 4 5 5 5 6 6 7 7 6 7 8 8 8 9 9 9 10 11 10 9 9 9 8 7 7 5 4 5 9 11 11 12 15
23 21 20 20 19 17 15 14 13 12 11 11 12 11 10 10 12 12 11 10 8 7 7 8 8 8 8 7 5 4 5 6 6 6 7 6 6 6 6 5 5 6 6 6 6 6 7 8 9 9 9 10 11 11 11 9 7 6 7 10 12 12 13
22 20 20 19 18 16 15 15 13 12 11 11 11 11 10 10 11 12 11 9 7 7 7 7 7 7 7 7 5 5 5 5 5 6 6 6 6 5 5 4 4 4 4 3 3 3 4 4 5 6 6 6 7 8 9 10 9 8 9 10 12 13 13
21 21 20 19 18 16 15 15 14 13 11 11 11 11 11 11 11 10 9 8 7 7 7 7 7 7 7 7 6 5 5 4 4 4 5 4 4 4 4 4 3 3 3 2 2 2 2 2 2 2 2 2 2 3 4 7 9 9 10 9 11 14 15
19 19 19 18 17 15 14 14 14 13 12 11 11 11 11 11 10 9 8 7 6 6 7 8 8 7 7 7 7 5 4 4 4 4 4 3 3 3 3 3 3 3 3 2 1 1 1 2 2 2 2 2 2 2 2 4 7 9 9 8 9 12 14
17 17 17 16 15 13 12 12 11 11 11 11 11 11 10 8 8 8 8 7 6 6 7 8 8 7 7 7 6 5 4 5 6 6 5 3 3 3 3 3 3 3 3 2 1 1 0 0 1 1 2 2 2 2 1 3 6 8 8 8 9 9 11
17 16 16 15 14 13 12 11 10 9 8 9 10 10 9 7 6 7 8 7 6 6 6 7 7 7 6 6 6 5 4 5 6 7 6 5 5 5 5 5 5 4 3 2 2 2 1 1 1 1 1 2 2 2 2 4 6 7 8 8 9 9 10
18 17 17 17 16 15 14 11 10 7 5 6 8 7 7 6 5 5 6 6 7 6 6 6 6 6 7 7 6 6 6 6 6 7 8 8 7 7 7 7 7 6 5 5 4 4 4 3 3 2 2 2 3 3 3 5 7 7 8 9 9 10 11
17 15 15 14 14 13 9 6 8 7 3 4 6 3 2 4 4 4 4 5 6 7 7 8 8 8 9 8 8 8 8 8 8 9 10 10 9 8 8 8 8 7 7 7 7 7 7 7 6 6 6 5 5 5 6 6 7 8 9 9 9 10 12
13 11 10 8 8 10 12 10 9 9 5 4 5 1 1 2 3 4 6 6 7 8 9 10 11 11 11 10 11 11 11 11 11 11 11 11 11 10 9 9 9 9 9 10 10 10 10 10 10 10 9 9 8 8 9 9 9 10 10 10 9 10 12
13 12 11 10 10 12 13 11 8 8 7 6 6 3 0 2 3 4 6 6 6 7 8 10 11 11 12 13 13 14 15 14 14 14 14 14 14 13 13 12 12 12 12 12 13 13 13 13 13 13 13 13 12 12 12 13 13 13 13 12 11 11 13
17 17 16 16 16 14 12 11 10 10 10 9 8 6 4 3 4 4 4 4 4 5 5 6 8 9 10 11 12 13 14 15 16 16 17 17 17 17 16 16 16 16 15 15 15 15 15 15 15 15 15 16 16 16 16 17 17 17 17 17 16 15 16
21 20 19 18 17 16 14 13 13 12 12 11 11 10 8 7 7 6 6 6 5 4 2 2 4 6 7 7 8 9 10 11 12 13 15 15 16 16 15 15 15 15 15 15 15 14 14 14 15 15 16 17 18 18 18 19 20 20 21 21 21 21 22
24 22 20 20 19 18 16 15 14 14 14 14 14 13 11 10 10 10 9 9 7 6 4 2 1 3 5 6 7 8 8 9 10 11 12 12 12 12 12 12 12 13 14 14 14 14 14 14 14 15 15 17 17 18 18 19 20 21 23 24 24 25 25
25 23 22 22 21 20 19 18 18 17 17 16 15 15 14 14 13 13 13 12 11 10 9 8 5 3 3 4 6 7 9 9 10 11 11 12 12 13 13 13 13 13 14 14 14 13 12 12 13 13 14 15 16 17 18 19 20 21 22 24 25 26 26
25 24 23 22 21 19 18 17 17 16 16 16 16 15 14 12 12 11 11 11 10 11 11 11 9 7 6 4 4 5 6 7 8 10 10 11 12 12 13 14 13 13 13 13 13 12 12 12 11 11 12 12 14 16 18 20 20 20 21 22 23 24 24
23 22 22 21 20 18 17 16 14 13 13 13 13 12 10 9 9 9 8 7 6 6 8 10 9 8 7 7 6 6 6 6 7 8 9 11 11 12 12 13 13 13 13 13 14 14 14 13 11 10 10 11 13 15 17 19 19 19 20 19 18 19 19
19 19 18 17 16 15 14 13 12 11 11 11 10 9 9 8 8 7 6 5 4 4 4 6 8 8 8 8 8 8 8 8 9 9 10 12 12 13 14 13 12 13 14 14 15 15 14 14 13 11 10 12 14 14 15 17 18 17 17 16 15 15 15
18 17 15 13 12 12 11 10 9 8 9 8 7 7 7 7 7 7 6 5 5 4 3 3 5 6 7 8 8 8 9 9 10 11 12 13 13 13 14 11 9 12 15 16 16 16 16 15 14 14 15 15 16 15 15 16 16 15 16 17 16 17 17
18 17 15 14 13 13 11 10 9 8 7 6 6 6 5 5 5 5 5 4 4 3 4 4 5 6 7 7 8 8 8 9 10 11 12 13 13 12 12 11 11 14 17 17 17 18 19 18 17 17 18 17 16 16 15 15 15 15 17 19 19 20 21
16 16 14 13 13 13 12 11 10 9 9 8 7 7 7 7 6 6 5 5 4 4 5 5 6 8 8 8 8 8 8 9 10 10 11 13 13 13 14 14 15 17 18 17 17 18 19 19 19 19 17 15 15 16 16 16 16 17 20 22 22 22 23
14 13 12 12 11 11 10 10 10 9 9 9 8 8 8 9 9 9 9 9 9 9 8 8 8 9 9 9 9 9 9 9 10 10 11 12 13 14 14 15 15 16 17 17 17 17 18 18 17 16 14 14 15 16 16 17 17 18 21 23 24 24 25
Wind_Direction
157 161 163 159 156 154 153 154 153 154 156 157 159 160 160 164 165 163 165 167 171 174 175 179 181 187 198 198 199 200 200 206 208 205 193 184 186 194 200 211 140 144 150 155 159 155 142 125 118 108 98 91 87 84 92 97 95 95 94 94 95 94 95
160 161 160 158 157 157 157 158 159 160 160 159 158 153 152 159 164 164 165 167 169 170 172 177 181 187 197 200 203 204 203 205 210 212 204 202 204 197 190 182 150 149 154 154 160 157 145 143 141 122 110 100 88 77 84 93 90 94 98 98 100 101 99
163 163 161 161 161 162 164 165 167 168 165 165 161 154 151 156 162 163 163 165 167 168 171 176 186 192 197 202 207 211 209 206 211 213 212 217 212 197 191 180 161 160 161 160 165 161 147 145 145 134 130 122 105 85 83 90 88 95 102 103 105 104 100
167 167 165 166 168 170 173 174 174 173 168 167 164 158 154 154 155 154 150 152 157 165 170 172 181 191 199 206 209 215 213 209 213 213 212 216 204 194 196 192 178 175 173 174 173 166 149 141 143 135 129 129 123 110 98 95 93 98 101 103 106 106 108
172 172 171 172 175 177 178 179 179 174 167 165 163 160 158 155 151 149 143 140 145 161 174 175 175 180 192 202 206 215 216 212 214 211 206 205 197 194 200 200 188 181 183 187 174 163 149 142 142 137 133 134 129 120 114 104 95 94 95 100 106 111 116
178 178 178 178 179 179 177 178 176 168 163 159 157 158 158 159 156 150 142 133 135 151 167 170 167 170 178 185 190 203 210 208 205 199 196 196 197 200 201 194 182 176 185 190 171 156 144 142 143 140 139 141 133 125 122 113 103 94 90 98 109 116 120
183 183 183 181 179 177 173 173 170 163 161 156 154 155 157 165 168 159 145 131 123 128 142 147 143 144 149 152 150 161 182 191 185 176 175 185 195 200 196 186 182 187 200 184 172 161 151 150 150 147 140 134 129 125 122 120 116 108 101 103 113 121 124
186 185 185 182 178 175 171 169 165 162 162 158 158 157 156 165 171 165 150 131 113 109 120 122 115 109 104 111 118 122 135 141 145 149 154 171 187 194 195 189 185 196 207 187 176 170 163 159 156 155 148 138 131 123 123 127 118 113 118 118 119 125 131
186 185 184 182 179 175 170 168 165 163 164 162 159 154 152 160 166 163 151 131 112 107 115 112 107 103 98 106 114 115 121 124 130 136 142 162 174 185 195 192 187 194 199 187 177 170 170 167 162 161 156 146 140 134 135 139 128 124 132 132 131 138 142
186 185 182 181 179 175 172 170 167 166 168 167 163 155 151 157 163 162 152 139 123 113 115 111 108 106 104 117 127 129 127 124 128 132 137 155 160 167 179 180 182 189 188 183 180 179 183 180 170 165 160 149 143 141 147 152 146 148 156 153 145 153 157
186 184 181 180 179 177 174 172 170 172 174 173 169 160 155 159 164 164 156 148 137 126 120 115 116 113 110 126 134 130 122 114 112 112 115 128 136 142 154 159 165 171 172 176 183 187 190 186 176 167 161 153 145 144 149 150 154 158 164 167 161 163 166
187 185 182 181 180 178 174 170 170 174 177 178 174 165 160 162 167 169 163 154 145 137 130 127 129 124 123 134 133 123 115 109 103 98 98 105 117 128 136 142 149 156 160 167 177 183 187 184 178 170 161 153 143 147 150 143 151 166 170 171 169 169 169
188 185 183 183 181 176 172 169 168 170 173 178 178 169 163 163 168 171 167 157 148 144 144 144 142 136 138 141 135 125 119 113 106 96 90 86 97 119 132 135 140 146 149 155 164 172 179 181 180 174 166 155 136 145 154 136 134 155 168 168 160 168 173
188 186 186 185 181 175 171 169 167 166 167 175 178 172 166 164 168 170 165 157 149 143 147 152 151 148 150 150 141 133 127 118 112 105 92 80 84 111 131 134 134 137 142 150 160 167 175 183 186 185 181 174 147 148 160 134 117 143 164 172 162 168 178
189 187 186 184 179 174 172 171 168 163 163 171 176 175 169 167 169 167 163 158 151 145 147 155 159 157 156 155 148 138 131 122 128 130 112 88 81 95 123 135 136 136 141 150 158 166 176 186 192 197 202 206 195 173 176 175 136 150 164 174 172 174 181
187 186 184 182 179 175 175 174 171 168 166 168 172 173 170 169 168 165 160 156 153 153 153 157 164 167 163 159 153 143 131 125 126 131 121 101 85 80 98 124 134 136 143 156 167 177 187 195 203 213 226 235 239 231 214 199 190 176 167 172 181 182 185
184 184 183 180 177 176 179 178 175 174 170 168 171 171 170 171 172 166 159 155 157 163 165 163 167 173 175 170 158 144 135 125 117 116 115 109 99 85 82 96 111 123 136 158 177 190 201 212 223 228 237 246 251 255 246 225 210 199 183 179 184 188 190
182 184 181 176 176 179 183 183 182 181 176 171 170 170 169 174 176 169 160 155 158 167 173 173 172 172 178 181 171 151 141 133 123 120 117 111 108 103 99 98 98 106 118 145 175 198 215 228 238 237 242 248 247 258 258 237 216 207 204 193 186 189 191
182 182 178 175 177 182 186 188 187 185 182 176 170 169 169 172 176 172 162 155 157 165 171 171 168 164 168 175 172 159 150 144 139 138 131 116 107 104 112 124 129 135 142 160 190 234 255 264 280 264 269 281 260 273 268 234 213 210 216 208 191 191 194
180 178 175 175 179 183 186 188 190 188 184 177 170 167 168 171 177 176 166 160 163 167 167 165 164 162 165 170 170 168 173 175 168 160 152 142 131 112 113 133 147 156 158 157 168 281 296 293 310 322 340 356 346 339 301 223 207 206 215 215 202 196 198
170 167 167 168 169 173 174 175 180 180 177 177 174 169 168 174 181 179 169 167 172 176 174 172 171 170 174 178 180 184 193 195 192 187 183 183 182 179 179 179 173 171 167 155 147 132 360 285 302 326 337 348 347 334 277 221 212 212 217 221 217 209 203
149 148 147 148 150 152 152 155 159 154 155 167 171 171 173 173 176 177 172 172 180 184 182 183 184 185 188 195 202 211 215 214 215 215 214 217 217 215 217 218 216 213 212 213 222 234 244 256 263 290 316 331 329 296 247 221 217 219 225 229 227 218 211
135 133 133 136 133 125 121 129 147 145 127 142 156 166 178 177 172 175 181 188 197 201 203 204 206 207 208 215 224 232 238 239 236 235 234 235 236 232 231 232 233 237 243 251 259 263 268 277 279 280 293 302 296 279 255 229 220 221 227 232 233 224 219
137 131 132 133 127 126 129 140 159 166 148 135 146 138 164 189 188 194 203 207 207 211 221 227 228 230 230 231 236 241 248 253 250 248 248 249 250 247 242 243 246 249 255 261 268 272 277 280 281 283 285 282 273 265 257 246 236 233 232 233 233 227 226
140 134 134 134 138 167 194 202 188 185 191 193 182 136 8 262 239 239 239 236 228 228 236 240 242 245 245 244 245 247 252 257 260 263 264 264 266 266 262 260 259 260 261 264 267 270 273 276 275 276 275 272 268 262 256 253 250 248 247 244 242 236 235
133 128 130 137 147 168 184 185 177 172 167 171 171 155 257 273 255 244 242 240 237 236 242 246 248 250 251 251 252 253 255 259 261 264 267 269 271 271 272 272 270 269 269 268 269 270 271 272 271 270 269 266 263 262 260 256 254 254 254 252 251 250 251
119 117 120 129 137 145 151 146 143 144 141 137 131 127 137 150 154 172 182 179 187 201 215 230 237 241 246 249 251 252 255 258 260 261 263 265 267 269 271 273 273 273 272 271 270 271 270 270 269 268 268 266 263 263 264 261 259 259 259 258 257 258 265
113 112 115 120 123 125 124 122 123 126 126 120 115 118 122 119 119 120 118 125 135 138 154 206 224 230 235 241 245 247 249 252 255 258 259 261 264 268 270 272 273 274 274 274 273 273 273 273 275 274 273 271 268 268 267 264 264 264 265 266 266 266 270
109 109 110 110 108 105 105 105 106 108 111 110 107 107 105 100 99 98 95 97 97 84 65 37 304 257 252 253 254 255 256 256 257 258 260 261 263 266 269 273 275 276 277 278 278 279 280 280 281 281 279 276 275 273 270 266 265 265 265 266 268 269 271
100 101 102 101 97 94 95 95 93 94 100 103 101 98 94 89 87 88 87 84 76 64 51 39 27 3 320 288 276 272 270 271 273 273 273 273 271 271 270 270 273 276 278 281 283 284 285 285 284 282 278 276 276 274 271 269 266 263 263 263 263 265 267
92 93 93 92 91 90 90 89 86 87 90 93 93 92 91 87 81 77 77 74 65 52 41 32 27 24 16 358 336 314 296 290 287 284 283 282 279 277 275 271 270 273 275 280 283 283 284 284 280 275 270 268 268 267 270 272 269 264 263 261 259 260 261
87 88 88 88 88 88 88 86 86 85 85 87 87 84 83 82 73 65 61 56 47 34 23 14 11 14 13 8 1 351 336 321 307 296 290 285 280 277 275 272 271 272 273 276 277 277 280 280 274 268 265 264 263 262 267 273 272 265 261 258 254 252 250
82 83 83 84 85 86 86 85 84 83 83 86 88 88 87 86 80 73 65 54 40 24 3 352 352 354 354 353 351 346 341 333 322 313 305 298 292 287 281 278 275 271 267 266 268 271 275 277 276 273 265 259 259 260 266 275 276 264 253 248 243 235 227
77 77 77 78 80 80 80 77 74 72 71 74 79 82 83 83 82 81 77 70 62 54 31 356 349 345 340 339 337 334 333 328 317 310 305 301 300 296 290 288 282 272 268 266 268 270 272 275 278 274 266 259 259 259 260 270 274 261 244 236 227 216 204
74 74 72 72 73 71 68 66 65 63 60 59 60 58 59 65 71 72 69 66 57 35 12 355 344 336 331 330 329 329 331 326 317 310 304 300 298 294 291 288 281 276 276 276 275 274 275 278 277 274 271 267 262 257 253 257 260 250 233 223 212 202 194
69 69 66 65 65 63 59 56 54 51 48 45 44 41 37 34 34 36 35 32 21 4 354 346 333 324 321 320 319 321 324 324 323 323 317 309 304 298 294 292 287 283 282 282 279 277 276 278 278 278 278 272 260 250 244 243 244 236 223 214 206 199 193
64 63 60 59 58 56 52 49 44 40 37 35 33 30 25 20 17 14 10 5 0 354 350 346 336 328 324 321 319 317 316 316 318 320 321 317 311 305 299 296 294 290 286 284 282 280 279 279 281 282 282 274 258 246 237 234 231 224 216 209 204 199 196